Regional Weather Roundup
Issued by NWS

Home | Current Version | Previous Version | Text Only | Print | Product List | Glossary Off
Versions: 1 2 3 4 5 6 7 8 9 10 11 12 13 14 15 16 17 18 19 20 21 22 23 24 25 26 27 28 29 30 31 32 33 34 35 36 37 38 39 40 41 42 43 44 45 46 47 48 49 50

000
ASUS45 KSLC 300410
RWRUT

UTAH REGIONAL WEATHER ROUNDUP
NATIONAL WEATHER SERVICE SALT LAKE CITY UT
1000 PM MDT FRI AUG 29 2014

UTZ001>011-023>025-300500-

NORTHERN UTAH

CITY           SKY/WX    TMP DP  RH WIND       PRES   REMARKS
HILL AFB       MOCLDY    75  42  31 E13       29.99F
LOGAN          CLEAR     72  50  45 S7        29.97S
OGDEN          MOCLDY    74  44  34 S10       29.96S
PROVO AIRPORT  MOCLDY    70  52  52 S3        30.02R
SALT LAKE CITY MOCLDY    76  41  28 SE9       29.95S
VERNAL         CLOUDY    69  42  37 W10       30.13S
WENDOVER       MOCLDY    79  39  24 NE5       29.92S
HEBER CITY     PTCLDY    61  43  51 CALM      30.11S
WEST JORDAN    CLEAR     75  48  38 SW7       30.00S

$$

UTZ012>022-026-027-300500-

SOUTHERN UTAH

CITY           SKY/WX    TMP DP  RH WIND       PRES   REMARKS
BRYCE CANYON   MOCLDY    61  39  44 SE8       30.28R
CEDAR CITY     MOCLDY    70  34  26 CALM      30.10R
MILFORD        CLEAR     76  39  26 S13       30.03R
MOAB/CYNLANDS  CLEAR     70  41  34 SW5       30.03S
PRICE          MOCLDY    68  39  34 NW5       30.16R
ST GEORGE      PTCLDY    84  39  20 CALM      29.90R

$$

REGIONAL REPORTS     COLORADO/ARIZONA

CITY           SKY/WX    TMP DP  RH WIND       PRES   REMARKS
CRAIG, CO      CLEAR     61  48  62 CALM      30.18R
GRAND JUNCTION PTCLDY    66  51  58 CALM      30.09R
RIFLE          CLEAR     63  49  60 SE10      30.16R
MONTROSE       PTCLDY    63  49  60 SE8       30.19R
CORTEZ         CLEAR     60  47  61 NE5       30.18R
PAGE, AZ       CLOUDY    81  35  19 CALM      30.02R
GRAND CANYON     N/A    N/A N/A N/A MISG        N/A
KINGMAN        PTCLDY    81  33  17 S10       29.95R
FLAGSTAFF      PTCLDY    56  43  61 CALM      30.28R

$$

REGIONAL REPORTS    NEVADA/IDAHO/WYOMING

CITY           SKY/WX    TMP DP  RH WIND       PRES   REMARKS
LAS VEGAS, NV  PTCLDY    98  31   9 S15       29.77R HX  92
ELY            PTCLDY    66  33  29 S12       30.11R
ELKO           CLOUDY    70  34  26 SW7       30.00R
POCATELLO, ID  CLEAR     73  41  31 S9        29.96S
BURLEY         CLOUDY    72  50  45 E3        29.91R
EVANSTON, WY   PTCLDY    60  41  49 SE10      30.20S
ROCK SPRINGS   PTCLDY    62  38  40 SW17      30.19

$$



USA.gov is the U.S. government's official web portal to all federal, state and local government web resources and services.